Location: Wanzleben
(52.0609°N, 11.4408°E)
Time: 16:17:51
(UTC+00:00)

Cosmos 2082 Rocket - Pass Details

Date: 18 September 2020
Orbit: 834 x 852 km, 71.0° (Epoch: 21 October)

Event Time Altitude Azimuth Distance (km) Brightness Sun altitude
Rises 22:22:58 0° 322° (NW) 3,394 6.2 -35.7°
Reaches altitude 10° 22:25:49 10° 309° (NW) 2,455 5.1 -35.8°
Enters shadow 22:28:04 19° 289° (WNW) 1,881 4.2 -35.9°
